Reflectivity
33 -7 -20 -20 25 7 -20 -20 -20 -20 -20 -20 -20 -20 -20 -20 -20 -18 7 12 -7 -16 -13 -5 -20 -19 -6 -20 -20 -20 -20 -20 -20 -20 -20 -20 -20 -20 -20 -20 -20 -1 -1 -20
32 -8 -17 -19 21 -20 -20 -20 -20 -20 -20 -20 -20 -20 -20 -20 -20 -3 -20 2 -15 -20 -5 12 -10 -2 -20 -20 -20 -20 -20 -20 -20 -20 -20 -20 -20 -20 -6 -4 24 28 20 -20
33 28 -20 -20 -16 -20 -10 -20 -20 -20 -20 -20 -20 -20 -20 -20 -20 -20 -1 -9 -20 -20 -20 -20 -20 -20 -20 -20 -20 -20 -20 -20 -20 -20 -20 -20 -20 -15 -11 -11 16 -13 -20 -19
35 16 -11 -3 3 -20 -20 -20 -20 -20 -20 -20 -20 -20 -20 -20 -20 -20 -20 8 -20 -20 -8 2 -12 -19 -20 -20 -20 -20 -20 -20 -20 -20 -20 -20 -20 -20 -20 -20 21 -20 -20 -20
33 22 -2 2 3 -1 -20 -20 -20 -20 -20 -20 -20 -20 -20 -20 -20 -20 -19 -20 -20 -20 -1 -20 -20 -20 -20 -20 -20 -20 -20 -20 -20 -20 -20 -20 -20 -20 -20 -20 2 -20 -20 -20
28 15 9 26 -5 -20 -20 -20 -20 -20 -20 -20 -20 -20 -20 -20 -20 -20 -20 -20 -20 -20 -20 -20 -20 -20 -20 -4 -14 -20 -20 -20 -20 -13 -20 -20 -20 -20 -20 -19 28 -13 10 -5
28 6 23 27 -11 -20 -20 -20 -20 -20 -20 -20 -20 -20 -20 -20 -20 -20 -20 -20 -20 -20 -20 -20 -20 -20 -19 -20 -20 -20 -20 -20 -20 0 -19 -15 -2 -20 -20 13 34 17 15 9
24 22 -1 28 24 -20 -20 -20 -20 -20 -20 -20 -20 -20 -20 -20 -20 -20 -20 -20 -20 -20 -20 -20 -14 -20 -20 -20 -17 -20 -20 -20 -1 -3 7 -16 -20 -20 -20 -20 -17 20 19 11
25 17 7 24 23 -7 -20 -20 -20 -20 -20 -20 -20 -20 -20 -20 -20 -20 -20 -20 -20 -20 -20 -20 -7 -20 -20 -19 -9 -6 -20 -20 -20 -20 14 7 -20 -20 -20 -20 -20 -20 -20 -11
15 9 26 24 15 -20 -20 -20 -20 -20 -20 -20 -20 -20 -20 -20 -20 -20 -20 -20 -20 -20 -20 -20 -20 -20 -20 -20 -20 -20 -20 -20 -20 -20 -10 -20 -20 -20 -20 -20 -3 -20 -20 -20
10 27 13 23 18 -20 -20 -20 -20 -20 -20 -20 -20 -20 -20 -20 -20 -20 -20 -20 -20 -20 -20 -20 -20 -20 -20 -20 -20 -20 -20 -20 -20 -20 -20 -20 -20 -20 -20 -7 -20 -20 -20 -20
28 24 12 22 14 4 -20 -20 -20 -20 -20 -20 -20 -20 -20 -20 -20 -20 -20 -20 -20 -20 -20 -20 -20 -20 -20 -20 -17 -20 -19 -20 -20 -20 -20 -20 -20 -20 -20 -20 -20 -20 -20 -20
28 28 15 18 7 -8 -20 -20 -20 -20 -20 -20 -20 -20 -20 -20 -20 -20 -20 -20 -20 -20 -20 -20 -20 -20 -20 -20 -20 -20 -20 -20 -20 -20 -20 -20 -20 -20 -20 -20 -5 -17 -20 -8
28 27 21 20 15 -8 -20 -20 -20 -20 -20 -20 -20 -20 -20 -20 -20 -20 -20 -20 -20 -20 -20 -20 -20 -20 -20 -20 -20 -20 -20 -20 -20 -20 -20 -20 -14 -20 -4 26 -8 -19 -14 -15
27 30 17 14 25 -14 -20 -20 -20 -20 -20 -20 -20 -20 -20 -20 -20 -20 -20 -20 -20 -20 -20 -20 -20 -20 -20 -10 -20 -20 -20 -20 -20 -20 -20 -20 -20 -20 -20 -18 -18 9 -12 16
8 25 19 13 14 -6 -5 -20 -20 -20 -20 -20 -20 -20 -20 -20 -20 -20 -20 -20 -20 -20 -20 -20 -20 -20 -20 -20 -20 -5 -20 -20 -20 -20 -20 -20 -20 -20 -20 -20 17 14 18 21
19 26 13 13 6 -8 -6 -9 -19 -20 -20 -20 -20 -20 -20 -20 -20 -19 -9 -15 -20 -20 -20 -20 -20 -20 -20 -18 -20 -11 -20 -20 -20 -20 -20 -20 -20 -20 -20 -20 -20 -17 -20 -16
20 26 16 16 -3 -20 -1 -13 -20 -20 -20 -20 -20 -20 -20 -20 -20 -17 -10 -10 -20 -20 -20 -20 -20 -20 -20 -20 -20 -20 -20 -20 -20 -20 -20 -20 -20 -20 -20 -20 -20 -20 -20 -20
29 25 18 -5 17 15 -12 -20 -20 -20 -20 -20 -20 -20 -20 -20 -20 -5 -9 -10 -20 -9 -20 -20 -20 -20 -16 -20 -20 -20 -20 -20 -20 -20 -20 -20 -20 -20 -15 -20 -2 -20 -3 -12
23 21 13 12 14 -17 -13 9 -20 -20 -20 -20 -20 -20 -20 -20 -20 -20 -15 -20 -8 -20 -20 -20 -20 -20 -20 -20 -20 -20 -20 -20 -20 -20 -20 -20 -20 -20 -20 -20 -20 -20 -20 -20
18 1 -9 0 7 -20 -20 3 -19 -20 -20 -20 -20 -20 -20 -20 -20 -20 -20 -20 -20 -20 -20 -20 -20 -20 -20 -20 -20 -20 -20 -20 -2 -14 -20 -20 -20 -20 -20 -20 -20 -20 -20 -20
7 1 -6 4 -1 -18 -19 -14 3 -20 -20 -20 -20 -20 -20 -20 -20 -20 -20 -20 -20 -20 -18 -18 -18 -20 -20 -20 -20 -20 -20 -20 -20 -20 -12 5 -17 -20 -20 -20 -19 -20 -20 -20
20 15 10 4 -19 -20 -20 -16 11 -17 -20 -20 -20 -20 -20 -20 -20 -20 -20 -20 -20 -20 -1 -20 -20 -20 -20 -20 -20 -20 -20 -20 -20 -20 -20 -20 -20 9 -20 -20 -20 -20 -20 -20
24 5 -11 -20 -20 -20 -17 10 7 -19 -20 -20 -20 -20 -20 -20 -20 -20 -20 -20 -20 -20 -20 -20 -20 -20 -20 -20 -20 -20 -20 -20 -20 -20 -20 -20 -20 -20 -20 -20 -20 -20 -9 7
11 -2 -15 -20 -20 -20 8 8 2 -18 -20 -20 -20 -20 -20 -20 -20 -20 -20 -20 -20 -20 -20 -20 -20 -20 -20 -20 -20 -20 -20 -20 -20 -20 -20 -20 -20 -17 -20 -20 -20 -20 -20 -10
6 -17 -19 -20 -19 -14 3 12 -1 -6 -14 -20 -20 -20 -20 -20 -20 -20 -20 -20 -20 -20 -20 -20 -20 -20 -20 -20 -20 -20 -20 -20 -20 -20 -20 -20 -3 -18 -20 -20 -20 -20 -20 -18
4 -20 -20 -6 8 7 5 12 4 -1 -16 -20 -20 -20 -20 -20 -20 -20 -20 -20 -20 -20 -20 -20 -20 -20 -20 -20 -20 -20 -20 -20 -20 -20 -20 -8 2 3 -20 -20 -19 -20 -20 -1
Wind_Speed
23 20 18 15 11 9 9 2 1 3 4 3 1 3 4 3 1 2 2 2 5 4 5 5 3 3 1 4 6 4 3 0 2 1 2 3 3 1 2 3 0 2 2 4
23 20 18 16 14 18 4 4 4 2 3 3 2 2 4 2 1 1 2 3 5 6 3 2 3 3 4 5 5 2 5 4 4 8 4 1 2 2 1 3 3 6 3 4
23 20 19 17 15 16 2 4 3 2 1 2 2 2 2 4 2 2 2 1 3 3 3 6 3 2 1 5 3 7 4 2 2 2 5 1 2 2 2 4 2 6 3 4
25 20 18 16 15 14 4 2 4 5 3 3 4 3 2 1 3 0 1 2 3 3 2 2 2 1 3 1 6 5 3 1 2 6 6 2 2 2 4 3 1 3 5 7
25 20 18 16 14 16 2 5 5 2 2 3 6 3 3 2 3 1 5 3 4 4 2 2 1 3 0 1 3 3 4 2 3 5 4 4 2 4 1 6 0 4 6 3
24 20 17 17 19 11 3 1 2 5 3 3 5 4 4 4 4 1 5 2 2 1 2 2 4 2 3 1 1 1 2 2 4 3 4 2 4 4 4 6 1 6 3 4
22 20 17 17 20 13 3 4 4 5 2 3 5 5 3 5 3 3 2 1 2 1 3 4 1 4 5 4 3 2 2 1 1 3 3 2 3 6 3 8 8 6 10 3
22 20 16 13 17 17 2 1 4 4 4 5 5 7 5 4 4 3 3 2 2 2 2 2 4 2 1 3 3 5 4 2 3 1 1 4 3 6 4 3 2 4 6 7
21 19 15 12 16 13 4 2 1 4 7 2 2 5 3 4 3 2 2 1 4 2 1 1 1 2 2 1 2 1 3 5 3 4 2 3 2 5 4 2 1 6 5 4
22 20 16 14 14 11 4 2 1 5 6 3 4 3 4 3 3 3 3 3 6 1 1 3 3 1 1 1 0 3 2 2 3 3 1 2 3 7 3 2 1 9 6 6
25 23 19 17 13 14 4 1 1 5 5 3 4 4 4 3 3 4 2 2 4 4 2 2 2 1 1 1 3 1 2 1 1 1 3 1 4 4 4 2 3 4 6 3
25 23 20 18 13 10 5 4 2 4 7 4 4 4 4 5 3 4 3 4 2 0 1 2 1 2 1 2 1 6 1 3 2 3 3 2 3 3 2 1 2 3 4 4
25 24 20 19 12 4 5 4 3 5 5 4 4 4 3 6 4 2 4 2 1 2 2 2 1 1 2 1 1 3 5 2 0 3 6 4 5 4 3 4 3 5 5 7
23 23 21 18 11 9 5 4 0 4 4 6 1 2 5 2 5 5 2 3 3 4 2 2 1 1 3 2 2 0 5 3 3 2 4 3 4 3 3 3 6 6 7 7
23 22 20 18 16 16 9 4 3 2 5 5 3 3 1 3 3 6 5 4 3 2 2 2 2 0 0 1 2 1 4 1 2 1 2 1 3 1 2 3 4 4 4 6
24 22 20 19 17 8 3 4 2 2 3 7 4 1 3 4 6 6 5 3 3 2 1 1 3 4 0 1 1 2 3 5 4 2 5 3 5 2 3 2 3 3 4 4
25 22 22 16 8 4 4 2 1 1 3 5 5 2 1 5 4 2 2 2 1 1 1 0 2 2 3 2 3 3 5 6 3 6 7 3 5 3 4 3 2 3 4 4
28 25 20 18 18 11 4 4 7 2 4 4 5 1 2 2 2 2 1 2 1 1 1 1 2 2 2 3 2 2 3 6 1 8 7 5 5 3 1 1 2 1 1 2
30 27 18 5 4 2 2 4 4 3 4 4 4 6 5 2 1 2 1 1 1 1 2 2 1 3 4 3 3 1 2 3 6 8 8 4 5 4 3 2 2 2 2 1
31 8 3 3 1 12 7 3 3 4 3 3 3 3 3 4 2 3 3 1 2 2 4 1 1 4 2 3 3 2 2 4 4 6 5 7 5 6 7 6 4 2 2 3
3 4 3 2 5 2 3 2 2 1 1 1 2 3 5 1 4 3 1 2 1 1 3 2 3 3 4 5 2 2 1 2 4 4 4 5 6 6 5 5 4 4 4 2
9 12 7 3 2 3 4 1 1 3 6 2 4 3 4 1 2 3 2 3 2 3 3 2 3 4 3 4 3 2 2 1 5 4 6 6 6 5 5 5 5 3 3 3
5 5 5 4 0 2 8 8 3 3 4 4 4 3 4 3 2 3 3 4 5 1 1 4 5 3 4 4 2 1 2 3 3 6 7 7 7 5 5 5 3 2 4 2
4 6 7 7 4 5 4 4 5 3 6 9 5 3 4 3 3 3 5 5 4 3 3 6 3 6 5 3 1 1 4 5 6 6 7 9 7 6 5 5 4 4 4 3
4 4 7 5 3 4 3 3 4 3 7 5 4 4 4 2 4 2 2 4 3 6 6 3 3 4 4 2 2 4 5 5 5 5 5 9 6 5 5 5 4 3 3 3
3 4 5 2 5 3 2 4 6 1 5 3 4 4 4 1 5 4 6 7 7 5 4 3 3 2 3 3 3 5 5 6 6 6 6 7 5 5 4 3 3 3 2 2
4 2 3 3 4 5 4 4 2 3 3 3 4 5 5 4 3 2 4 6 5 4 2 2 4 4 4 4 4 5 5 5 6 6 6 5 2 1 2 4 3 4 3 3
Wind_Direction
178 178 184 179 182 152 138 171 123 222 97 67 234 132 186 120 210 204 267 219 292 334 339 26 99 70 359 262 288 328 297 50 10 1 49 121 128 355 9 102 125 224 195 276
170 177 181 173 178 168 145 161 140 295 94 136 271 200 128 120 154 30 334 23 349 338 316 87 40 69 305 315 330 35 320 351 9 344 347 74 80 216 7 86 80 229 120 270
166 175 182 173 187 186 127 103 97 344 128 208 138 116 94 130 133 153 80 278 6 343 19 47 66 94 309 349 35 345 32 334 152 194 251 161 125 194 195 101 276 333 12 357
168 173 180 176 187 170 145 112 217 183 203 273 135 107 107 124 121 257 184 224 48 344 350 122 64 51 318 17 7 4 58 302 293 286 290 284 27 193 211 104 165 78 296 325
170 169 177 177 175 144 111 140 138 24 132 109 120 154 169 128 82 166 164 208 1 301 66 59 14 22 174 322 22 42 14 293 317 295 252 221 261 310 264 124 335 278 281 292
167 167 178 180 164 154 139 240 28 108 172 159 108 197 159 136 125 166 70 91 287 205 98 310 279 294 200 189 293 235 85 19 342 297 340 156 340 265 197 98 292 320 348 359
165 169 174 190 167 177 136 193 115 100 152 117 159 137 118 137 133 131 27 286 258 193 293 273 192 223 165 148 256 214 218 293 270 285 48 36 286 359 89 152 195 174 292 27
165 168 175 189 181 187 108 164 119 123 103 125 94 128 132 144 120 145 190 280 218 294 313 179 142 131 205 184 231 217 268 298 287 316 332 148 48 9 1 48 88 14 225 227
160 159 165 179 171 184 99 70 113 103 119 290 118 129 129 142 146 89 228 76 289 273 286 63 330 93 109 112 123 150 223 291 329 349 341 70 307 302 324 313 88 330 330 314
155 152 152 164 161 152 114 99 75 90 102 321 51 129 159 117 105 129 57 344 343 269 342 52 39 6 214 111 306 206 219 227 246 288 356 66 315 299 340 131 252 312 291 285
153 149 153 153 146 147 100 131 344 111 96 1 52 48 91 64 78 127 259 59 342 5 102 100 124 96 27 328 355 55 135 142 267 341 76 63 343 360 63 220 292 349 332 354
150 151 162 138 151 160 110 91 326 72 86 143 83 86 77 88 98 135 21 151 76 268 96 48 115 142 257 186 328 343 21 169 213 145 227 293 34 122 55 20 95 355 359 65
148 155 151 138 155 160 129 123 146 72 90 46 49 52 50 44 47 102 118 332 160 79 180 89 66 124 0 43 288 294 356 11 17 74 357 0 51 34 46 11 64 27 4 59
148 154 142 142 135 113 96 102 293 92 120 107 275 83 52 96 61 52 48 122 44 92 37 96 107 130 19 48 274 110 224 12 334 18 1 82 64 34 6 52 36 50 39 34
154 146 142 138 115 103 85 74 52 99 118 128 143 101 82 103 85 73 41 55 76 55 80 145 158 186 293 245 63 335 331 18 75 20 314 239 275 273 315 65 51 30 104 72
142 141 141 122 132 125 60 50 345 349 79 99 108 229 110 69 81 82 70 40 56 67 105 349 315 316 347 288 197 38 7 10 21 4 308 234 263 36 7 72 68 50 84 106
135 134 117 122 96 70 64 134 165 60 71 89 94 76 18 144 118 110 90 19 70 103 137 323 239 290 194 259 198 87 13 344 36 31 360 71 41 336 0 61 98 97 101 90
130 122 115 110 100 110 50 353 22 38 81 73 106 67 65 178 150 124 173 159 203 203 298 251 225 243 164 252 138 80 16 314 35 4 337 282 273 249 20 4 327 267 194 167
123 120 120 75 37 76 156 129 54 50 105 121 103 133 191 162 148 123 179 224 135 128 248 229 203 214 223 213 157 209 272 344 324 328 313 332 348 345 318 298 292 290 246 220
126 108 110 96 339 127 133 26 31 17 352 46 93 116 126 123 160 146 144 164 199 210 222 228 168 255 121 166 179 157 349 304 316 320 335 351 336 340 330 329 320 313 286 303
99 114 92 72 127 82 51 94 125 177 41 96 139 126 128 297 117 141 217 182 201 181 223 171 252 249 209 166 169 176 179 327 297 295 281 289 288 289 295 302 286 286 289 259
145 113 103 110 114 55 112 140 94 186 187 142 118 152 131 119 118 118 208 173 172 208 174 197 245 248 153 140 145 175 197 286 304 295 284 272 272 279 284 291 285 261 260 256
93 78 106 141 68 109 181 172 211 173 169 165 142 109 122 85 68 84 144 166 219 128 206 234 225 196 160 166 154 239 288 300 295 308 297 279 266 259 250 268 284 297 279 229
115 138 134 196 182 232 183 162 135 145 123 123 114 86 111 120 75 125 135 230 75 205 234 231 223 189 181 174 191 284 287 291 279 281 297 298 266 260 259 230 213 230 232 232
121 129 178 181 139 57 72 82 93 92 127 111 91 60 86 54 96 154 145 163 237 200 226 226 212 173 173 210 254 276 283 280 273 268 275 289 257 246 256 240 226 237 254 236
78 68 95 124 83 94 66 98 112 88 126 95 66 105 79 91 140 157 211 141 213 241 212 212 164 199 220 225 267 288 287 289 281 276 274 280 252 247 241 216 197 200 173 237
59 25 34 86 73 119 124 128 144 126 82 121 121 105 175 97 108 220 206 205 216 200 220 195 184 192 223 229 260 288 292 290 283 279 292 286 309 193 207 229 229 202 199 213